Tracking 22993 objects as of 9-May-2021
HD Live streaming from Space Station
objects crossing your sky now

COSMOS 397 DEB

Track COSMOS 397 DEB now!
10-day predictions


NORAD ID: 6844
Int'l Code: 1971-015CL
Perigee: 543.1 km
Apogee: 1,480.3 km
Inclination: 65.9 °
Period: 105.2 minutes
Semi major axis: 7382 km
RCS: 0.0356 m2 (small)
Launch date: February 25, 1971
Source: Commonwealth of Independent States (former USSR) (CIS)
Launch site: TYURATAM MISSILE AND SPACE COMPLEX (TTMTR)

Note: This is SATELLITE DEBRIS
aabbcc
Your satellite tracking list
Your tracking list is empty




NASA's NSSDC Master Catalog

Two Line Element Set (TLE):
1 06844U 71015CL  21129.53575566  .00000340  00000-0  12278-3 0  9993
2 06844  65.8983 164.2362 0634725 342.0017  15.9449 13.68604188364146
Source of the keplerian elements: AFSPC